Time,TemperatureF,DewpointF,PressureIn,WindDirection,WindDirectionDegrees,WindSpeedMPH,WindSpeedGustMPH,Humidity,HourlyPrecipIn,Conditions,Clouds,dailyrainin,SoftwareType,DateUTC
2013-05-19 00:02:00,65.0,63.0,29.95,SSE,163,0.0,0.0,92,0.00,,,0.00,,2013-05-19 05:02:00,
2013-05-19 00:12:00,65.0,63.0,29.95,SSE,163,0.0,0.0,92,0.00,,,0.00,,2013-05-19 05:12:00,
2013-05-19 00:22:00,65.0,63.0,29.95,SSE,163,0.0,0.0,92,0.00,,,0.00,,2013-05-19 05:22:00,
2013-05-19 00:32:00,65.0,63.0,29.95,SSE,163,0.0,0.0,92,0.00,,,0.00,,2013-05-19 05:32:00,
2013-05-19 00:42:00,65.0,63.0,29.95,SSE,163,0.0,0.0,93,0.00,,,0.00,,2013-05-19 05:42:00,
2013-05-19 00:52:00,65.0,63.0,29.95,SSE,163,0.0,0.0,93,0.00,,,0.00,,2013-05-19 05:52:00,
2013-05-19 01:02:00,65.0,63.0,29.95,SSE,163,0.0,0.0,92,0.00,,,0.00,,2013-05-19 06:02:00,
2013-05-19 01:12:00,65.0,63.0,29.95,SSE,163,0.0,0.0,92,0.00,,,0.00,,2013-05-19 06:12:00,
2013-05-19 01:21:00,64.0,62.0,29.95,SSE,163,0.0,0.0,92,0.00,,,0.00,,2013-05-19 06:21:00,
2013-05-19 01:32:00,64.0,62.0,29.95,SSE,163,0.0,0.0,92,0.00,,,0.00,,2013-05-19 06:32:00,
2013-05-19 01:42:00,64.0,62.0,29.95,SSE,163,0.0,0.0,92,0.00,,,0.00,,2013-05-19 06:42:00,
2013-05-19 01:52:00,63.0,61.0,29.95,SSE,163,0.0,0.0,93,0.00,,,0.00,,2013-05-19 06:52:00,
2013-05-19 02:01:00,63.0,61.0,29.95,SSE,163,0.0,0.0,93,0.00,,,0.00,,2013-05-19 07:01:00,
2013-05-19 02:11:00,63.0,61.0,29.95,SSE,163,0.0,0.0,93,0.00,,,0.00,,2013-05-19 07:11:00,
2013-05-19 02:21:00,63.0,61.0,29.94,SSE,163,0.0,0.0,94,0.00,,,0.00,,2013-05-19 07:21:00,
2013-05-19 02:32:00,64.0,63.0,29.94,SSE,163,0.0,0.0,95,0.00,,,0.00,,2013-05-19 07:32:00,
2013-05-19 02:42:00,64.0,63.0,29.94,SSE,163,0.0,0.0,95,0.00,,,0.00,,2013-05-19 07:42:00,
2013-05-19 02:52:00,64.0,62.0,29.94,SSE,163,0.0,0.0,94,0.00,,,0.00,,2013-05-19 07:52:00,
2013-05-19 03:01:00,64.0,62.0,29.94,SSE,163,0.0,0.0,94,0.00,,,0.00,,2013-05-19 08:01:00,
2013-05-19 03:12:00,64.0,62.0,29.94,SSE,163,0.0,0.0,94,0.00,,,0.00,,2013-05-19 08:12:00,
2013-05-19 03:22:00,64.0,62.0,29.94,SSE,163,0.0,0.0,94,0.00,,,0.00,,2013-05-19 08:22:00,
2013-05-19 03:32:00,63.0,61.0,29.94,SSE,163,0.0,0.0,94,0.00,,,0.00,,2013-05-19 08:32:00,
2013-05-19 03:42:00,63.0,61.0,29.94,SSE,163,0.0,0.0,94,0.00,,,0.00,,2013-05-19 08:42:00,
2013-05-19 03:52:00,64.0,63.0,29.93,SSE,163,0.0,0.0,95,0.00,,,0.00,,2013-05-19 08:52:00,
2013-05-19 04:02:00,64.0,63.0,29.94,SSE,163,0.0,0.0,95,0.00,,,0.00,,2013-05-19 09:02:00,
2013-05-19 04:11:00,64.0,63.0,29.94,SSE,163,0.0,0.0,95,0.00,,,0.00,,2013-05-19 09:11:00,
2013-05-19 04:21:00,64.0,63.0,29.94,SSE,163,0.0,0.0,95,0.00,,,0.00,,2013-05-19 09:21:00,
2013-05-19 04:32:00,64.0,63.0,29.93,SSE,163,0.0,0.0,95,0.00,,,0.00,,2013-05-19 09:32:00,
2013-05-19 04:43:00,64.0,63.0,29.93,SSE,163,0.0,0.0,95,0.00,,,0.00,,2013-05-19 09:43:00,
2013-05-19 04:53:00,65.0,64.0,29.94,SSE,163,0.0,0.0,95,0.00,,,0.00,,2013-05-19 09:53:00,
2013-05-19 05:02:00,64.0,62.0,29.93,SSE,163,0.0,0.0,94,0.00,,,0.00,,2013-05-19 10:02:00,
2013-05-19 05:12:00,64.0,62.0,29.93,SSE,163,0.0,0.0,94,0.00,,,0.00,,2013-05-19 10:12:00,
2013-05-19 05:23:00,64.0,62.0,29.93,SSE,163,0.0,0.0,94,0.00,,,0.00,,2013-05-19 10:23:00,
2013-05-19 05:33:00,64.0,63.0,29.94,SSE,163,0.0,0.0,95,0.00,,,0.00,,2013-05-19 10:33:00,
2013-05-19 05:42:00,64.0,63.0,29.94,SSE,163,0.0,0.0,95,0.00,,,0.00,,2013-05-19 10:42:00,
2013-05-19 05:53:00,64.0,63.0,29.94,SSE,163,0.0,0.0,95,0.00,,,0.00,,2013-05-19 10:53:00,
2013-05-19 06:02:00,64.0,63.0,29.93,SSE,163,0.0,0.0,95,0.00,,,0.00,,2013-05-19 11:02:00,
2013-05-19 06:12:00,64.0,63.0,29.93,SSE,163,0.0,0.0,95,0.00,,,0.00,,2013-05-19 11:12:00,
2013-05-19 06:21:00,64.0,63.0,29.94,SSE,163,0.0,0.0,95,0.00,,,0.00,,2013-05-19 11:21:00,
2013-05-19 06:32:00,65.0,64.0,29.94,SSE,163,0.0,0.0,96,0.00,,,0.00,,2013-05-19 11:32:00,
2013-05-19 06:42:00,65.0,64.0,29.94,SSE,163,0.0,0.0,96,0.00,,,0.00,,2013-05-19 11:42:00,
2013-05-19 06:52:00,65.0,64.0,29.94,SSE,163,0.0,0.0,95,0.00,,,0.00,,2013-05-19 11:52:00,
2013-05-19 07:01:00,66.0,65.0,29.93,SSE,163,0.0,0.0,95,0.00,,,0.00,,2013-05-19 12:01:00,
2013-05-19 07:11:00,66.0,65.0,29.93,SSE,163,0.0,0.0,95,0.00,,,0.00,,2013-05-19 12:11:00,
2013-05-19 07:22:00,66.0,65.0,29.93,ESE,111,0.0,0.0,95,0.00,,,0.00,,2013-05-19 12:22:00,
2013-05-19 07:32:00,67.0,66.0,29.94,ESE,111,0.0,0.0,95,0.00,,,0.00,,2013-05-19 12:32:00,
2013-05-19 07:42:00,67.0,66.0,29.94,ESE,111,0.0,0.0,95,0.00,,,0.00,,2013-05-19 12:42:00,
2013-05-19 07:52:00,67.0,65.0,29.95,ESE,111,0.0,0.0,94,0.00,,,0.00,,2013-05-19 12:52:00,
2013-05-19 08:01:00,68.0,66.0,29.95,SE,134,0.0,0.0,94,0.00,,,0.00,,2013-05-19 13:01:00,
2013-05-19 08:11:00,68.0,66.0,29.95,SE,134,0.0,0.0,94,0.00,,,0.00,,2013-05-19 13:11:00,
2013-05-19 08:21:00,68.0,66.0,29.95,SSE,162,0.0,0.0,93,0.00,,,0.00,,2013-05-19 13:21:00,
2013-05-19 08:32:00,69.0,67.0,29.95,SSE,147,0.0,0.0,92,0.00,,,0.00,,2013-05-19 13:32:00,
2013-05-19 08:42:00,69.0,67.0,29.95,SSE,147,0.0,0.0,92,0.00,,,0.00,,2013-05-19 13:42:00,
2013-05-19 08:52:00,70.0,68.0,29.95,South,169,0.0,0.0,92,0.00,,,0.00,,2013-05-19 13:52:00,
2013-05-19 09:02:00,71.0,68.0,29.94,SE,124,1.0,7.0,90,0.00,,,0.00,,2013-05-19 14:02:00,
2013-05-19 09:11:00,71.0,68.0,29.94,SE,124,1.0,7.0,90,0.00,,,0.00,,2013-05-19 14:11:00,
2013-05-19 09:21:00,71.0,68.0,29.94,SSE,159,0.0,0.0,91,0.00,,,0.00,,2013-05-19 14:21:00,
2013-05-19 09:32:00,72.0,69.0,29.94,SE,146,0.0,0.0,90,0.00,,,0.00,,2013-05-19 14:32:00,
2013-05-19 09:42:00,72.0,69.0,29.94,SE,146,0.0,0.0,90,0.00,,,0.00,,2013-05-19 14:42:00,
2013-05-19 09:52:00,72.0,69.0,29.94,SE,146,0.0,0.0,90,0.00,,,0.00,,2013-05-19 14:52:00,
2013-05-19 10:01:00,73.0,70.0,29.96,South,180,0.0,0.0,90,0.00,,,0.00,,2013-05-19 15:01:00,
2013-05-19 10:11:00,73.0,70.0,29.96,South,180,0.0,0.0,90,0.00,,,0.00,,2013-05-19 15:11:00,
2013-05-19 10:21:00,73.0,70.0,29.96,SSW,205,0.0,4.0,90,0.00,,,0.00,,2013-05-19 15:21:00,
2013-05-19 10:33:00,73.0,70.0,29.96,South,182,0.0,0.0,90,0.00,,,0.00,,2013-05-19 15:33:00,
2013-05-19 10:43:00,73.0,70.0,29.96,South,182,0.0,0.0,90,0.00,,,0.00,,2013-05-19 15:43:00,
2013-05-19 10:53:00,74.0,71.0,29.95,SE,135,0.0,0.0,90,0.00,,,0.00,,2013-05-19 15:53:00,
2013-05-19 11:03:00,74.0,71.0,29.95,SE,135,0.0,0.0,90,0.00,,,0.00,,2013-05-19 16:03:00,
2013-05-19 11:12:00,74.0,71.0,29.95,SE,135,0.0,0.0,90,0.00,,,0.00,,2013-05-19 16:12:00,
2013-05-19 11:23:00,76.0,72.0,29.95,SE,138,0.0,0.0,86,0.00,,,0.00,,2013-05-19 16:23:00,
2013-05-19 11:32:00,77.0,72.0,29.94,SSE,150,0.0,5.0,84,0.00,,,0.00,,2013-05-19 16:32:00,
2013-05-19 11:42:00,77.0,72.0,29.94,SSE,150,0.0,5.0,84,0.00,,,0.00,,2013-05-19 16:42:00,
2013-05-19 11:52:00,77.0,72.0,29.95,SE,142,0.0,0.0,84,0.00,,,0.00,,2013-05-19 16:52:00,
2013-05-19 12:02:00,78.0,72.0,29.95,South,190,0.0,0.0,83,0.00,,,0.00,,2013-05-19 17:02:00,
2013-05-19 12:12:00,78.0,72.0,29.95,South,190,0.0,0.0,83,0.00,,,0.00,,2013-05-19 17:12:00,
2013-05-19 12:22:00,78.0,72.0,29.94,South,179,0.0,0.0,81,0.00,,,0.00,,2013-05-19 17:22:00,
2013-05-19 12:32:00,80.0,74.0,29.93,ESE,103,0.0,1.0,82,0.00,,,0.00,,2013-05-19 17:32:00,
2013-05-19 12:42:00,80.0,74.0,29.93,ESE,103,0.0,1.0,82,0.00,,,0.00,,2013-05-19 17:42:00,
2013-05-19 12:52:00,81.0,73.0,29.93,SE,128,0.0,0.0,78,0.00,,,0.00,,2013-05-19 17:52:00,
2013-05-19 13:02:00,82.0,74.0,29.92,SSE,168,0.0,0.0,76,0.00,,,0.00,,2013-05-19 18:02:00,
2013-05-19 13:12:00,82.0,74.0,29.92,SSE,168,0.0,0.0,76,0.00,,,0.00,,2013-05-19 18:12:00,
2013-05-19 13:22:00,82.0,74.0,29.91,SSE,159,0.0,0.0,76,0.00,,,0.00,,2013-05-19 18:22:00,
2013-05-19 13:32:00,83.0,74.0,29.90,SSW,195,0.0,8.0,74,0.00,,,0.00,,2013-05-19 18:32:00,
2013-05-19 13:42:00,83.0,74.0,29.90,SSW,195,0.0,8.0,74,0.00,,,0.00,,2013-05-19 18:42:00,
2013-05-19 13:52:00,83.0,73.0,29.88,ESE,118,0.0,10.0,73,0.00,,,0.00,,2013-05-19 18:52:00,
2013-05-19 14:01:00,84.0,74.0,29.88,SE,125,0.0,0.0,72,0.00,,,0.00,,2013-05-19 19:01:00,
2013-05-19 14:11:00,84.0,74.0,29.88,SE,125,0.0,0.0,72,0.00,,,0.00,,2013-05-19 19:11:00,
2013-05-19 14:22:00,85.0,74.0,29.88,South,182,0.0,5.0,70,0.00,,,0.00,,2013-05-19 19:22:00,
2013-05-19 14:32:00,84.0,74.0,29.88,ENE,69,0.0,0.0,71,0.00,,,0.00,,2013-05-19 19:32:00,
2013-05-19 14:42:00,84.0,74.0,29.88,ENE,69,0.0,0.0,71,0.00,,,0.00,,2013-05-19 19:42:00,
2013-05-19 14:52:00,84.0,74.0,29.88,East,93,0.0,7.0,73,0.00,,,0.00,,2013-05-19 19:52:00,
2013-05-19 15:02:00,86.0,74.0,29.88,East,99,0.0,5.0,68,0.00,,,0.00,,2013-05-19 20:02:00,
2013-05-19 15:11:00,86.0,74.0,29.88,East,99,0.0,5.0,68,0.00,,,0.00,,2013-05-19 20:11:00,
2013-05-19 15:21:00,85.0,73.0,29.87,ENE,61,0.0,0.0,68,0.00,,,0.00,,2013-05-19 20:21:00,
2013-05-19 15:32:00,86.0,74.0,29.86,South,191,0.0,0.0,67,0.00,,,0.00,,2013-05-19 20:32:00,
2013-05-19 15:42:00,86.0,74.0,29.86,South,191,0.0,0.0,67,0.00,,,0.00,,2013-05-19 20:42:00,
2013-05-19 15:52:00,87.0,73.0,29.86,SSW,198,0.0,0.0,64,0.00,,,0.00,,2013-05-19 20:52:00,
2013-05-19 16:02:00,86.0,72.0,29.85,ESE,122,0.0,0.0,63,0.00,,,0.00,,2013-05-19 21:02:00,
2013-05-19 16:11:00,86.0,72.0,29.85,ESE,122,0.0,0.0,63,0.00,,,0.00,,2013-05-19 21:11:00,
2013-05-19 16:22:00,86.0,72.0,29.85,SE,138,0.0,0.0,63,0.00,,,0.00,,2013-05-19 21:22:00,
2013-05-19 16:32:00,86.0,72.0,29.85,ESE,115,0.0,2.0,63,0.00,,,0.00,,2013-05-19 21:32:00,
2013-05-19 16:43:00,86.0,72.0,29.85,ESE,115,0.0,2.0,63,0.00,,,0.00,,2013-05-19 21:43:00,
2013-05-19 16:53:00,86.0,71.0,29.85,South,172,0.0,4.0,62,0.00,,,0.00,,2013-05-19 21:53:00,
2013-05-19 17:03:00,86.0,71.0,29.85,ESE,121,0.0,8.0,61,0.00,,,0.00,,2013-05-19 22:03:00,
2013-05-19 17:12:00,86.0,71.0,29.85,ESE,121,0.0,8.0,61,0.00,,,0.00,,2013-05-19 22:12:00,
2013-05-19 17:23:00,86.0,71.0,29.84,SE,146,0.0,6.0,61,0.00,,,0.00,,2013-05-19 22:23:00,
2013-05-19 17:33:00,86.0,71.0,29.84,SE,144,0.0,0.0,62,0.00,,,0.00,,2013-05-19 22:33:00,
2013-05-19 17:42:00,86.0,71.0,29.84,SE,144,0.0,0.0,62,0.00,,,0.00,,2013-05-19 22:42:00,
2013-05-19 17:52:00,87.0,71.0,29.83,SSE,163,0.0,10.0,60,0.00,,,0.00,,2013-05-19 22:52:00,
2013-05-19 18:02:00,87.0,72.0,29.83,SE,125,0.0,8.0,61,0.00,,,0.00,,2013-05-19 23:02:00,
2013-05-19 18:11:00,87.0,72.0,29.83,SE,125,0.0,8.0,61,0.00,,,0.00,,2013-05-19 23:11:00,
2013-05-19 18:22:00,87.0,72.0,29.83,South,174,5.0,11.0,62,0.00,,,0.00,,2013-05-19 23:22:00,
2013-05-19 18:32:00,86.0,71.0,29.83,SSW,192,1.0,12.0,62,0.00,,,0.00,,2013-05-19 23:32:00,
2013-05-19 18:42:00,86.0,71.0,29.83,SSW,192,1.0,12.0,62,0.00,,,0.00,,2013-05-19 23:42:00,
2013-05-19 18:52:00,86.0,71.0,29.83,ESE,109,0.0,9.0,62,0.00,,,0.00,,2013-05-19 23:52:00,
2013-05-19 19:02:00,86.0,71.0,29.83,South,176,0.0,6.0,61,0.00,,,0.00,,2013-05-20 00:02:00,
2013-05-19 19:11:00,86.0,71.0,29.83,South,176,0.0,6.0,61,0.00,,,0.00,,2013-05-20 00:11:00,
2013-05-19 19:21:00,85.0,70.0,29.83,South,180,6.0,13.0,61,0.00,,,0.00,,2013-05-20 00:21:00,
2013-05-19 19:32:00,85.0,70.0,29.82,South,191,2.0,12.0,62,0.00,,,0.00,,2013-05-20 00:32:00,
2013-05-19 19:42:00,85.0,70.0,29.82,South,191,2.0,12.0,62,0.00,,,0.00,,2013-05-20 00:42:00,
2013-05-19 19:52:00,84.0,69.0,29.83,South,183,1.0,8.0,61,0.00,,,0.00,,2013-05-20 00:52:00,
2013-05-19 20:01:00,82.0,68.0,29.83,SW,215,0.0,0.0,63,0.00,,,0.00,,2013-05-20 01:01:00,
2013-05-19 20:11:00,82.0,68.0,29.83,SW,215,0.0,0.0,63,0.00,,,0.00,,2013-05-20 01:11:00,
2013-05-19 20:21:00,82.0,69.0,29.83,South,173,0.0,5.0,65,0.00,,,0.00,,2013-05-20 01:21:00,
2013-05-19 20:31:00,81.0,69.0,29.84,South,184,0.0,6.0,66,0.00,,,0.00,,2013-05-20 01:31:00,
2013-05-19 20:42:00,81.0,69.0,29.84,South,184,0.0,6.0,66,0.00,,,0.00,,2013-05-20 01:42:00,
2013-05-19 20:52:00,80.0,69.0,29.85,South,188,0.0,0.0,69,0.00,,,0.00,,2013-05-20 01:52:00,
2013-05-19 21:02:00,79.0,68.0,29.85,South,174,0.0,0.0,70,0.00,,,0.00,,2013-05-20 02:02:00,
2013-05-19 21:11:00,79.0,68.0,29.85,South,174,0.0,0.0,70,0.00,,,0.00,,2013-05-20 02:11:00,
2013-05-19 21:21:00,79.0,69.0,29.85,SSW,194,0.0,0.0,71,0.00,,,0.00,,2013-05-20 02:21:00,
2013-05-19 21:31:00,78.0,68.0,29.86,SSW,202,0.0,0.0,72,0.00,,,0.00,,2013-05-20 02:31:00,
2013-05-19 21:42:00,78.0,68.0,29.86,SSW,202,0.0,0.0,72,0.00,,,0.00,,2013-05-20 02:42:00,
2013-05-19 21:51:00,78.0,69.0,29.86,SSW,200,0.0,0.0,73,0.00,,,0.00,,2013-05-20 02:51:00,
2013-05-19 22:01:00,78.0,69.0,29.87,SSE,148,0.0,0.0,73,0.00,,,0.00,,2013-05-20 03:01:00,
2013-05-19 22:11:00,78.0,69.0,29.87,SSE,148,0.0,0.0,73,0.00,,,0.00,,2013-05-20 03:11:00,
2013-05-19 22:21:00,77.0,68.0,29.88,South,183,0.0,0.0,74,0.00,,,0.00,,2013-05-20 03:21:00,
2013-05-19 22:33:00,77.0,68.0,29.88,SSE,149,0.0,0.0,75,0.00,,,0.00,,2013-05-20 03:33:00,
2013-05-19 22:43:00,77.0,68.0,29.88,SSE,149,0.0,0.0,75,0.00,,,0.00,,2013-05-20 03:43:00,
2013-05-19 22:52:00,76.0,68.0,29.88,South,169,0.0,0.0,76,0.00,,,0.00,,2013-05-20 03:52:00,
2013-05-19 23:03:00,76.0,69.0,29.88,SSW,194,0.0,0.0,78,0.00,,,0.00,,2013-05-20 04:03:00,
2013-05-19 23:13:00,76.0,69.0,29.88,SSW,194,0.0,0.0,78,0.00,,,0.00,,2013-05-20 04:13:00,
2013-05-19 23:23:00,76.0,69.0,29.88,SSE,165,0.0,0.0,79,0.00,,,0.00,,2013-05-20 04:23:00,
2013-05-19 23:33:00,76.0,69.0,29.88,South,188,0.0,0.0,80,0.00,,,0.00,,2013-05-20 04:33:00,
2013-05-19 23:42:00,76.0,69.0,29.88,South,188,0.0,0.0,80,0.00,,,0.00,,2013-05-20 04:42:00,
2013-05-19 23:52:00,75.0,69.0,29.88,South,190,0.0,7.0,81,0.00,,,0.00,,2013-05-20 04:52:00,